Home > Weather > Ponta Delgada > Past weeks

Flag for Portugal Weather for the Past 2 Weeks in Ponta Delgada, Azores, Portugal

Now
59 °F

Passing clouds.


Feels Like: 58 °F
Forecast: 57 / 63 °F
Wind: 7 mph from East

Location: Ponta Delgada / Nordela Acores

Current Time: May 1, 2016 at 1:12:50 AM

Latest Report: May 1, 2016 at 12:30 AM


Visibility: N/A

Pressure: 30.45 "Hg

Humidity: 72%

Dew Point: 50 °F

Location of Ponta DelgadaLocation

Historic Weather in Ponta Delgada — Graph

°F

Ponta Delgada Temperature Yesterday

Maximum temperature yesterday: 64 °F (at 11:30 AM)
Minimum temperature yesterday: 55 °F (at 1:30 AM)
Average temperature yesterday: 60 °F

High & Low Weather Summary for the Past Weeks

 TemperatureHumidityPressure
High66 °F (Apr 24, 4:30 PM)100% (Apr 22, 8:30 PM)30.45 "Hg (Apr 22, 8:30 PM)
Low48 °F (Apr 16, 4:00 AM)56% (Apr 30, 6:00 PM)29.80 "Hg (Apr 15, 11:00 PM)
Average59 °F81%30.00 "Hg
* Reported Apr 15 11:00 PM — Apr 30 11:30 PM, Ponta Delgada, Weather by CustomWeather, © 2016

Note: Actual official high and low records may vary slightly from our data, if they occured in-between our weather recording intervals... More about our weather records

Advertising

Ponta Delgada Weather History for the Previous 24 Hours

Scroll right to see more
 ConditionsComfort  
Time TempWeatherWind HumidityBarometerVisibility
11:30 PM
Sat, Apr 30
59 °FPassing clouds.9 mph72%30.45 "HgN/A
11:00 PM59 °FPassing clouds.9 mph72%30.45 "HgN/A
10:30 PM59 °FPassing clouds.8 mph72%30.45 "HgN/A
10:00 PM59 °FPassing clouds.8 mph72%30.45 "HgN/A
9:30 PM59 °FScattered clouds.9 mph72%30.45 "HgN/A
9:00 PM59 °FScattered clouds.10 mph72%30.45 "HgN/A
8:30 PM59 °FPassing clouds.12 mph72%30.42 "HgN/A
8:00 PM61 °FPassing clouds.12 mph68%30.42 "HgN/A
7:30 PM61 °FPassing clouds.13 mph68%30.39 "HgN/A
7:00 PM61 °FPassing clouds.14 mph63%30.42 "HgN/A
6:30 PM63 °FScattered clouds.13 mph56%30.42 "HgN/A
6:00 PM63 °FPartly sunny.12 mph56%30.42 "HgN/A
5:30 PM63 °FPartly sunny.10 mph59%30.42 "HgN/A
5:00 PM61 °FPartly sunny.14 mph63%30.42 "HgN/A
4:30 PM63 °FPartly sunny.14 mph59%30.42 "HgN/A
4:00 PM63 °FPartly sunny.14 mph59%30.42 "HgN/A
3:30 PM63 °FPartly sunny.15 mph59%30.42 "HgN/A
3:00 PM63 °FPartly sunny.15 mph64%30.45 "HgN/A
2:30 PM63 °FPartly sunny.14 mph64%30.42 "HgN/A
2:00 PM63 °FPartly sunny.16 mph68%30.42 "HgN/A
1:30 PM61 °FPartly sunny.15 mph72%30.42 "HgN/A
1:00 PM63 °FPartly sunny.15 mph73%30.42 "HgN/A
12:30 PM63 °FPartly sunny.14 mph73%30.42 "HgN/A
12:00 PM64 °FScattered clouds.15 mph64%30.42 "HgN/A
11:30 AM64 °FPassing clouds.12 mph60%30.42 "HgN/A
11:00 AM63 °FPassing clouds.13 mph59%30.42 "HgN/A
10:30 AM63 °FPassing clouds.10 mph64%30.42 "HgN/A
10:00 AM63 °FScattered clouds.8 mph68%30.39 "HgN/A
9:30 AM63 °FScattered clouds.9 mph73%30.39 "HgN/A
9:00 AM61 °FScattered clouds.7 mph68%30.39 "HgN/A
8:30 AM59 °FScattered clouds.6 mph72%30.39 "HgN/A
8:00 AM59 °FScattered clouds.7 mph72%30.39 "HgN/A
7:30 AM55 °FPassing clouds.7 mph82%30.36 "HgN/A
7:00 AM55 °FPassing clouds.7 mph72%30.36 "HgN/A
6:30 AM55 °FPassing clouds.7 mph77%30.36 "HgN/A
6:00 AM55 °FPassing clouds.7 mph72%30.36 "HgN/A
5:30 AM55 °FPassing clouds.6 mph72%30.36 "HgN/A
5:00 AM55 °FPassing clouds.6 mph77%30.33 "HgN/A
4:30 AM55 °FPassing clouds.6 mph77%30.33 "HgN/A
4:00 AM55 °FPassing clouds.7 mph77%30.33 "HgN/A
3:00 AM55 °FPassing clouds.6 mph77%30.33 "HgN/A
2:30 AM55 °FPassing clouds.5 mph77%30.33 "HgN/A
2:00 AM57 °FPassing clouds.6 mph72%30.33 "HgN/A
1:30 AM55 °FPassing clouds.5 mph77%30.36 "HgN/A
Weather by CustomWeather, © 2016

See weather overviewHow to use our weather pages